Flag for Germany Weather past 2 weeks in Greven, North Rhine-Westphalia, Germany

Now
57 °F

Partly sunny.


Feels Like: 56 °F
Forecast: 53 / 74 °F
Wind: 7 mph from Southwest

Location: Muenster / Osnabrueck

Current Time: Aug 28, 2015 at 10:03:21 AM

Latest Report: Aug 28, 2015 at 9:20 AM


Visibility: 4 mi

Pressure: 30.01 "Hg

Humidity: 94%

Dew point: 55 °F

Location of GrevenLocation

Historic Weather in Greven — Graph

°F

Greven temperature yesterday

Maximum temperature yesterday: 72 °F (at 12:20 AM)
Minimum temperature yesterday: 57 °F (at 7:20 PM)
Average temperature yesterday: 64 °F

Past Weeks' High & Low Weather Summary

 TemperatureHumidityPressure
High82 °F (Aug 13, 4:20 PM)100% (Aug 14, 3:20 AM)30.27 "Hg (Aug 14, 3:20 AM)
Low50 °F (Aug 19, 6:20 AM)34% (Aug 23, 2:20 PM)29.53 "Hg (Aug 24, 5:20 PM)
Average66 °F79%29.92 "Hg
* Reported Aug 13 8:20 AM — Aug 28 8:50 AM, Greven, Weather by CustomWeather, © 2015

Note: Actual official high and low records may vary slightly from our data, if they occured in-between our weather recording intervals... More about our weather records

Advertising

Greven weather history for previous 24 hours

 ConditionsComfort  
Time TempWeatherWind HumidityBarometerVisibility
8:50 AM
Fri, Aug 28
57 °FPartly sunny.7 mph94%30.01 "Hg4 mi
8:20 AM57 °FPartly sunny.6 mph94%30.01 "Hg4 mi
7:50 AM57 °FPartly sunny.6 mph94%29.98 "Hg4 mi
7:20 AM57 °FPassing clouds.5 mph94%29.98 "Hg4 mi
6:50 AM55 °FPassing clouds.6 mph100%29.98 "Hg4 mi
5:50 AM55 °FFog.9 mph100%29.95 "Hg3 mi
5:20 AM55 °FFog.5 mph100%29.95 "Hg3 mi
4:50 AM55 °FFog.6 mph100%29.95 "Hg3 mi
4:20 AM55 °FFog.5 mph94%29.92 "Hg3 mi
3:50 AM55 °FFog.6 mph100%29.92 "Hg3 mi
3:20 AM55 °FFog.6 mph100%29.92 "Hg3 mi
2:50 AM55 °FFog.3 mph100%29.92 "Hg3 mi
2:20 AM55 °FFog.6 mph100%29.92 "Hg3 mi
1:50 AM55 °FFog.6 mph100%29.89 "Hg3 mi
1:20 AM55 °FFog.6 mph100%29.89 "Hg3 mi
12:50 AM55 °FFog.6 mph100%29.89 "Hg3 mi
12:20 AM55 °FLight rain. Mostly cloudy.6 mph100%29.89 "Hg4 mi
11:50 PM
Thu, Aug 27
57 °FLight rain. Mostly cloudy.6 mph94%29.89 "Hg4 mi
11:20 PM57 °FLight rain. Mostly cloudy.6 mph94%29.89 "Hg4 mi
10:50 PM57 °FLight rain. Mostly cloudy.6 mph94%29.89 "Hg4 mi
10:20 PM57 °FLight rain. Mostly cloudy.6 mph94%29.86 "Hg4 mi
9:50 PM57 °FLight rain. Low clouds.6 mph100%29.86 "Hg4 mi
9:20 PM57 °FLight rain. Low clouds.3 mph100%29.86 "HgN/A
8:50 PM57 °FLight rain. Low clouds.6 mph94%29.86 "Hg6 mi
8:20 PM57 °FLight rain. Low clouds.5 mph94%29.86 "Hg6 mi
7:50 PM57 °FLight rain. Mostly cloudy.6 mph100%29.86 "Hg6 mi
7:20 PM57 °FLight rain. Partly sunny.7 mph100%29.86 "Hg5 mi
6:50 PM59 °FLight rain. Broken clouds.7 mph94%29.83 "Hg5 mi
6:20 PM59 °FLight rain. Partly sunny.7 mph94%29.86 "Hg5 mi
5:50 PM59 °FLight rain. Partly sunny.8 mph94%29.86 "HgN/A
5:20 PM59 °FLight rain. Partly sunny.8 mph88%29.86 "HgN/A
4:50 PM59 °FLight rain. Partly sunny.10 mph88%29.86 "Hg5 mi
4:20 PM61 °FLight rain. Partly sunny.9 mph94%29.86 "Hg5 mi
3:50 PM61 °FLight rain. Broken clouds.10 mph94%29.86 "Hg6 mi
3:20 PM61 °FLight rain. Broken clouds.10 mph88%29.86 "Hg5 mi
2:50 PM63 °FLight rain. Broken clouds.10 mph88%29.83 "Hg6 mi
2:20 PM63 °FLight rain. Broken clouds.13 mph83%29.83 "HgN/A
1:50 PM64 °FLight rain. Broken clouds.10 mph88%29.83 "Hg5 mi
1:20 PM66 °FLight rain. Broken clouds.10 mph78%29.83 "HgN/A
12:50 PM66 °FBroken clouds.12 mph73%29.83 "HgN/A
12:20 PM68 °FLight rain. Broken clouds.12 mph69%29.83 "HgN/A
10:50 AM66 °FBroken clouds.10 mph73%29.83 "HgN/A
10:20 AM66 °FBroken clouds.8 mph73%29.83 "HgN/A
Weather by CustomWeather, © 2015

See weather overviewHow to use our weather pages